• In Austria
  • List of Countries
  • For 7 days
  • Water Temperature
  • Satellite Maps
  • Weather Map
  • News
  • Weather Widgets
  • user-avatar
    Login

    Hourly Weather Elbasan

    Today, 19 July, Thursday

    Time Temperature Precipitation Wind Pressure Humidity
    00:00 +20°C° 0 mm 1 mps 733 mmHg 80%
    01:00 +20°C° 0 mm 1 mps 733 mmHg 80%
    02:00 +20°C° 0 mm 1 mps 732 mmHg 79%
    03:00 +20°C° 0 mm 1 mps 732 mmHg 78%
    04:00 +19°C° 0 mm 1 mps 732 mmHg 77%
    05:00 +21°C° 0 mm 1 mps 732 mmHg 71%
    06:00 +23°C° 0 mm 1 mps 732 mmHg 65%
    07:00 +25°C° 0 mm 1 mps 732 mmHg 59%
    08:00 +26°C° 0 mm 2 mps 733 mmHg 55%
    09:00 +27°C° 0 mm 3 mps 733 mmHg 51%
    10:00 +29°C° 0 mm 3 mps 733 mmHg 47%
    11:00 +29°C° 0 mm 3 mps 733 mmHg 46%
    12:00 +30°C° 0 mm 4 mps 733 mmHg 45%
    13:00 +30°C° 0 mm 4 mps 733 mmHg 45%
    14:00 +30°C° 0.1 mm 4 mps 733 mmHg 47%
    15:00 +30°C° 0.1 mm 4 mps 733 mmHg 49%
    16:00 +29°C° 0.1 mm 4 mps 732 mmHg 51%
    17:00 +27°C° 0.1 mm 3 mps 732 mmHg 58%
    18:00 +26°C° 0.1 mm 2 mps 732 mmHg 66%
    19:00 +24°C° 0.1 mm 1 mps 732 mmHg 73%
    20:00 +23°C° 0 mm 1 mps 733 mmHg 75%
    21:00 +22°C° 0 mm 1 mps 733 mmHg 77%
    22:00 +22°C° 0 mm 1 mps 733 mmHg 78%
    23:00 +21°C° 0 mm 1 mps 733 mmHg 78%

    Tomorrow, 20 July, Friday

    Time Temperature Precipitation Wind Pressure Humidity
    00:00 +21°C° 0 mm 1 mps 733 mmHg 78%
    01:00 +21°C° 0 mm 1 mps 733 mmHg 78%
    02:00 +21°C° 0 mm 1 mps 733 mmHg 78%
    03:00 +20°C° 0 mm 1 mps 733 mmHg 78%
    04:00 +20°C° 0 mm 1 mps 733 mmHg 78%
    05:00 +22°C° 0 mm 1 mps 733 mmHg 73%
    06:00 +24°C° 0 mm 1 mps 733 mmHg 68%
    07:00 +25°C° 0 mm 1 mps 733 mmHg 64%
    08:00 +27°C° 0 mm 1 mps 733 mmHg 58%
    09:00 +28°C° 0 mm 2 mps 733 mmHg 53%
    10:00 +30°C° 0 mm 2 mps 734 mmHg 48%
    11:00 +30°C° 0 mm 2 mps 733 mmHg 47%
    12:00 +31°C° 0 mm 3 mps 733 mmHg 46%
    13:00 +31°C° 0 mm 3 mps 733 mmHg 45%
    14:00 +31°C° 0 mm 3 mps 733 mmHg 45%
    15:00 +31°C° 0 mm 3 mps 733 mmHg 46%
    16:00 +31°C° 0 mm 3 mps 733 mmHg 47%
    17:00 +29°C° 0 mm 3 mps 733 mmHg 54%
    18:00 +27°C° 0 mm 2 mps 733 mmHg 60%
    19:00 +25°C° 0 mm 1 mps 733 mmHg 67%
    20:00 +24°C° 0 mm 1 mps 733 mmHg 68%
    21:00 +23°C° 0 mm 1 mps 734 mmHg 69%
    22:00 +22°C° 0 mm 1 mps 734 mmHg 70%
    23:00 +22°C° 0 mm 1 mps 734 mmHg 69%

    Day after tomorrow, 21 July, Saturday

    Time Temperature Precipitation Wind Pressure Humidity
    00:00 +22°C° 0 mm 1 mps 734 mmHg 69%
    01:00 +22°C° 0 mm 1 mps 734 mmHg 68%
    02:00 +21°C° 0 mm 1 mps 734 mmHg 68%
    03:00 +21°C° 0 mm 1 mps 734 mmHg 68%
    04:00 +21°C° 0 mm 1 mps 734 mmHg 68%
    05:00 +23°C° 0 mm 1 mps 734 mmHg 63%
    06:00 +25°C° 0 mm 1 mps 734 mmHg 59%
    07:00 +27°C° 0 mm 1 mps 734 mmHg 54%
    08:00 +28°C° 0 mm 1 mps 734 mmHg 49%
    09:00 +30°C° 0 mm 1 mps 734 mmHg 44%
    10:00 +31°C° 0 mm 2 mps 734 mmHg 39%
    11:00 +32°C° 0 mm 2 mps 734 mmHg 37%
    12:00 +34°C° 0 mm 3 mps 734 mmHg 36%
    13:00 +34°C° 0 mm 3 mps 734 mmHg 34%
    14:00 +34°C° 0 mm 3 mps 734 mmHg 36%
    15:00 +34°C° 0 mm 3 mps 734 mmHg 38%
    16:00 +33°C° 0 mm 3 mps 733 mmHg 39%
    17:00 +30°C° 0 mm 2 mps 733 mmHg 46%
    18:00 +28°C° 0 mm 1 mps 733 mmHg 53%
    19:00 +26°C° 0 mm 1 mps 733 mmHg 59%
    20:00 +25°C° 0 mm 1 mps 733 mmHg 60%
    21:00 +24°C° 0 mm 1 mps 733 mmHg 61%
    22:00 +23°C° 0 mm 1 mps 734 mmHg 62%
    23:00 +23°C° 0 mm 1 mps 733 mmHg 61%

    22 July, Sunday

    Time Temperature Precipitation Wind Pressure Humidity
    00:00 +23°C° 0 mm 1 mps 733 mmHg 60%
    01:00 +23°C° 0 mm 1 mps 733 mmHg 59%
    02:00 +23°C° 0 mm 1 mps 733 mmHg 58%
    03:00 +23°C° 0 mm 2 mps 733 mmHg 57%
    04:00 +23°C° 0 mm 2 mps 733 mmHg 55%
    05:00 +25°C° 0 mm 2 mps 733 mmHg 53%
    06:00 +27°C° 0 mm 2 mps 733 mmHg 51%
    07:00 +29°C° 0 mm 2 mps 732 mmHg 50%
    08:00 +31°C° 0 mm 2 mps 732 mmHg 44%
    09:00 +32°C° 0 mm 2 mps 732 mmHg 39%
    10:00 +35°C° 0 mm 3 mps 732 mmHg 34%
    11:00 +36°C° 0 mm 3 mps 731 mmHg 33%
    12:00 +36°C° 0 mm 4 mps 731 mmHg 32%
    13:00 +37°C° 0 mm 5 mps 731 mmHg 31%
    14:00 +37°C° 0 mm 5 mps 730 mmHg 32%
    15:00 +36°C° 0 mm 5 mps 730 mmHg 34%
    16:00 +36°C° 0 mm 5 mps 729 mmHg 35%
    17:00 +33°C° 0 mm 4 mps 729 mmHg 42%
    18:00 +30°C° 0 mm 4 mps 729 mmHg 48%
    19:00 +28°C° 0 mm 3 mps 729 mmHg 54%
    20:00 +27°C° 0 mm 3 mps 729 mmHg 56%
    21:00 +26°C° 0 mm 4 mps 729 mmHg 58%
    22:00 +25°C° 0 mm 4 mps 729 mmHg 60%
    23:00 +25°C° 0.3 mm 4 mps 729 mmHg 63%

    23 July, Monday

    Time Temperature Precipitation Wind Pressure Humidity
    00:00 +24°C° 0.3 mm 3 mps 728 mmHg 67%
    01:00 +22°C° 0.3 mm 3 mps 728 mmHg 71%
    02:00 +22°C° 0.5 mm 3 mps 728 mmHg 76%
    03:00 +21°C° 0.5 mm 3 mps 728 mmHg 82%
    04:00 +21°C° 0.5 mm 3 mps 728 mmHg 87%
    05:00 +23°C° 0.3 mm 2 mps 728 mmHg 84%
    06:00 +24°C° 0.3 mm 2 mps 728 mmHg 80%
    07:00 +25°C° 0.3 mm 2 mps 728 mmHg 77%
    08:00 +26°C° 0.2 mm 2 mps 728 mmHg 72%
    09:00 +26°C° 0.2 mm 3 mps 728 mmHg 66%
    10:00 +27°C° 0.2 mm 3 mps 728 mmHg 61%
    11:00 +28°C° 0.4 mm 3 mps 728 mmHg 60%
    12:00 +28°C° 0.4 mm 3 mps 728 mmHg 59%
    13:00 +28°C° 0.4 mm 3 mps 728 mmHg 59%
    14:00 +28°C° 0.3 mm 3 mps 728 mmHg 59%
    15:00 +28°C° 0.3 mm 3 mps 727 mmHg 59%
    16:00 +28°C° 0.3 mm 3 mps 727 mmHg 59%
    17:00 +26°C° 0.2 mm 2 mps 727 mmHg 65%
    18:00 +25°C° 0.2 mm 2 mps 727 mmHg 72%
    19:00 +24°C° 0.2 mm 2 mps 727 mmHg 79%
    20:00 +23°C° 0.5 mm 1 mps 728 mmHg 82%
    21:00 +22°C° 0.5 mm 1 mps 728 mmHg 85%
    22:00 +21°C° 0.5 mm 1 mps 728 mmHg 87%
    23:00 +21°C° 0 mm 1 mps 728 mmHg 87%

    24 July, Tuesday

    Time Temperature Precipitation Wind Pressure Humidity
    00:00 +21°C° 0 mm 1 mps 728 mmHg 87%
    01:00 +21°C° 0 mm 1 mps 727 mmHg 87%
    02:00 +20°C° 0 mm 1 mps 727 mmHg 86%
    03:00 +20°C° 0 mm 1 mps 727 mmHg 85%
    04:00 +20°C° 0 mm 1 mps 727 mmHg 85%
    05:00 +22°C° 0 mm 1 mps 728 mmHg 79%
    06:00 +23°C° 0 mm 1 mps 728 mmHg 74%
    07:00 +25°C° 0 mm 1 mps 728 mmHg 69%
    08:00 +26°C° 0 mm 2 mps 728 mmHg 62%
    09:00 +28°C° 0 mm 2 mps 728 mmHg 56%
    10:00 +29°C° 0 mm 2 mps 729 mmHg 50%
    11:00 +30°C° 0.3 mm 3 mps 728 mmHg 49%
    12:00 +31°C° 0.3 mm 3 mps 728 mmHg 48%
    13:00 +31°C° 0.3 mm 3 mps 728 mmHg 46%
    14:00 +31°C° 0.6 mm 3 mps 729 mmHg 49%
    15:00 +32°C° 0.6 mm 4 mps 729 mmHg 51%
    16:00 +30°C° 0.6 mm 4 mps 729 mmHg 53%
    17:00 +28°C° 0.6 mm 3 mps 729 mmHg 60%
    18:00 +27°C° 0.6 mm 3 mps 729 mmHg 66%
    19:00 +25°C° 0.6 mm 2 mps 729 mmHg 73%
    20:00 +24°C° 0.1 mm 2 mps 730 mmHg 75%
    21:00 +23°C° 0.1 mm 2 mps 730 mmHg 78%
    22:00 +23°C° 0.1 mm 2 mps 730 mmHg 81%
    23:00 +21°C° 0 mm 2 mps 730 mmHg 81%
    Show more